Retour au catalogue

BREEZE-M DEB

TANK

ActifHEO
NORAD 38654·DEBRIS·🇷🇺 Russia

Lancé Jul 9, 2012 depuis Baikonur Cosmodrome

Loading…

Prochains Passages (prochaines 24 heures)

TLE

FraisSource: Space-Track

Époque: Sep 14, 2026, 10:27 UTC

1 38654U 12036C   26257.43576496  .00001838  00000-0  42840-3 0  9995
2 38654  49.6574  26.6435 5029787 267.9110  36.3616  5.54741564276723

Suivez BREEZE-M DEB en temps réel avec AllMySat

Download on the App Store